Home   Weather   Willemstad   Past weeks

Flag for Curaçao Past Weather in Willemstad, Curaçao — Yesterday and Last 2 Weeks

Now
73 °F

Passing clouds.


Feels Like: 72 °F
Forecast: 76 / 83 °F
Wind: 3 mph from Southeast

Location: Hato Airport - Curacao

Current Time: Jan 23, 2017 at 4:39:37 am

Latest Report: Jan 23, 2017 at 4:00 am


Visibility: N/A

Pressure: 29.89 "Hg

Humidity: 89%

Dew Point: 70 °F

Location of WillemstadLocation

Past Weather in Willemstad — Graph

°F

Willemstad Temperature Yesterday

Maximum temperature yesterday: 84 °F (at 1:00 pm)
Minimum temperature yesterday: 75 °F (at 6:00 am)
Average temperature yesterday: 79 °F

High & Low Weather Summary for the Past Weeks

 TemperatureHumidityPressure
High84 °F (Jan 8, 11:00 am)94% (Jan 9, 11:53 pm)30.07 "Hg (Jan 9, 11:53 pm)
Low73 °F (Jan 9, 11:00 pm)62% (Jan 13, 11:00 am)29.86 "Hg (Jan 10, 5:00 pm)
Average79 °F79%29.95 "Hg
* Reported Jan 8 3:00 am — Jan 23 3:00 am, Willemstad, Weather by CustomWeather, © 2017

Note: Actual official high and low records may vary slightly from our data, if they occured in-between our weather recording intervals... More about our weather records

Advertising

Willemstad Weather History for the Previous 24 Hours

Scroll right to see more
 ConditionsComfort  
Time TempWeatherWind HumidityBarometerVisibility
3:00 am
Mon, Jan 23
73 °FPassing clouds.5 mph89%29.89 "HgN/A
2:00 am73 °FPassing clouds.6 mph89%29.89 "HgN/A
1:00 am75 °FPassing clouds.6 mph83%29.92 "HgN/A
12:00 am75 °FPassing clouds.6 mph83%29.95 "HgN/A
11:00 pm
Sun, Jan 22
75 °FPassing clouds.7 mph83%29.95 "HgN/A
10:00 pm75 °FPassing clouds.7 mph83%29.95 "HgN/A
9:00 pm77 °FPassing clouds.8 mph79%29.95 "HgN/A
8:00 pm79 °FPassing clouds.10 mph74%29.92 "HgN/A
7:00 pm79 °FPassing clouds.12 mph74%29.92 "HgN/A
6:00 pm81 °FPassing clouds.10 mph70%29.92 "HgN/A
5:00 pm81 °FPassing clouds.9 mph70%29.92 "HgN/A
4:00 pm82 °FPassing clouds.9 mph70%29.89 "HgN/A
3:00 pm84 °FPassing clouds.10 mph66%29.92 "HgN/A
2:00 pm82 °FPassing clouds.9 mph70%29.95 "HgN/A
1:00 pm84 °FPassing clouds.10 mph66%29.98 "HgN/A
12:00 pm82 °FPassing clouds.9 mph70%29.98 "HgN/A
11:00 am82 °FPassing clouds.9 mph70%30.01 "HgN/A
10:00 am82 °FPassing clouds.10 mph74%30.01 "HgN/A
9:00 am81 °FPassing clouds.8 mph74%30.01 "HgN/A
8:00 am79 °FScattered clouds.5 mph79%29.98 "HgN/A
7:00 am77 °FPassing clouds.6 mph83%29.95 "HgN/A
6:00 am75 °FPassing clouds.5 mph83%29.92 "HgN/A
5:00 am77 °FPassing clouds.8 mph83%29.92 "HgN/A
4:00 am77 °FPassing clouds.10 mph83%29.92 "HgN/A
Weather by CustomWeather, © 2017

See weather overviewHow to use our weather pages